| time (UTC) | temp F | wind direction | speed knots | gust knots | rain 1hr in | rain 24hr in | rain mn in | humidity % | barometer mb |
| 20260510204547 | 66 | 138 | 0.0 | 0.9 | 0.00 | 0.00 | 0.00 | 55 | 1018.8 |
| 20260510203039 | 67 | 39 | 0.0 | 1.7 | 0.00 | 0.00 | 0.00 | 54 | 1018.9 |
| 20260510201535 | 67 | 80 | 0.0 | 1.7 | 0.00 | 0.00 | 0.00 | 55 | 1018.9 |
| 20260510200036 | 67 | 152 | 0.0 | 0.9 | 0.00 | 0.00 | 0.00 | 54 | 1018.7 |
| 20260510194524 | 65 | 154 | 0.0 | 1.7 | 0.00 | 0.00 | 0.00 | 59 | 1018.7 |
| 20260510193024 | 63 | 156 | 0.0 | 3.5 | 0.00 | 0.00 | 0.00 | 62 | 1018.8 |
| 20260510191528 | 63 | 117 | 0.0 | 0.9 | 0.00 | 0.00 | 0.00 | 63 | 1018.7 |
| 20260510190033 | 63 | 83 | 0.0 | 0.9 | 0.00 | 0.00 | 0.00 | 61 | 1018.8 |
| 20260510184520 | 64 | 151 | 0.0 | 0.9 | 0.00 | 0.00 | 0.00 | 60 | 1018.5 |
| 20260510183020 | 65 | 149 | 0.0 | 1.7 | 0.00 | 0.00 | 0.00 | 60 | 1018.4 |
| 20260510181537 | 64 | 154 | 0.0 | 0.9 | 0.00 | 0.00 | 0.00 | 60 | 1018.2 |
| 20260510180028 | 63 | 104 | 0.0 | 2.6 | 0.00 | 0.00 | 0.00 | 59 | 1018.2 |
| 20260510174505 | 63 | 128 | 0.0 | 1.7 | 0.00 | 0.00 | 0.00 | 64 | 1018.1 |
| 20260510173010 | 61 | 186 | 0.9 | 3.5 | 0.00 | 0.00 | 0.00 | 63 | 1018.2 |
| 20260510171502 | 60 | 152 | 0.0 | 0.9 | 0.00 | 0.00 | 0.00 | 66 | 1018.0 |
| 20260510170001 | 59 | 158 | 0.0 | 0.9 | 0.00 | 0.00 | 0.00 | 68 | 1017.9 |
| 20260510164613 | 59 | 133 | 0.0 | 0.9 | 0.00 | 0.00 | 0.00 | 72 | 1017.7 |
| 20260510163105 | 58 | 166 | 0.0 | 0.0 | 0.00 | 0.00 | 0.00 | 75 | 1017.8 |
| 20260510161601 | 58 | 138 | 0.0 | 0.9 | 0.00 | 0.00 | 0.00 | 75 | 1017.8 |
| 20260510160059 | 57 | 139 | 0.0 | 0.0 | 0.00 | 0.00 | 0.00 | 77 | 1017.6 |
| 20260510154546 | 56 | 103 | 0.0 | 2.6 | 0.00 | 0.00 | 0.00 | 80 | 1017.6 |
| 20260510153049 | 55 | 92 | 0.0 | 0.9 | 0.00 | 0.00 | 0.00 | 81 | 1017.3 |
| 20260510151542 | 54 | 64 | 0.0 | 0.9 | 0.00 | 0.00 | 0.00 | 82 | 1017.2 |
| 20260510150044 | 0 | 0.0 | 0.0 | 0.00 | 0.00 | 0.00 | 1017.2 | ||
| 20260510144545 | 0 | 0.0 | 0.0 | 0.00 | 0.00 | 0.00 | 1017.1 | ||
| 20260510143030 | 0 | 0.0 | 0.0 | 0.00 | 0.00 | 0.00 | 1017.1 | ||
| 20260510141525 | 0 | 0.0 | 0.0 | 0.00 | 0.00 | 0.00 | 1016.8 | ||
| 20260510140023 | 0 | 0.0 | 0.0 | 0.00 | 0.00 | 0.00 | 1016.5 | ||
| 20260510134517 | 0 | 0.0 | 0.0 | 0.00 | 0.00 | 0.00 | 1016.6 | ||
| 20260510133001 | 0 | 0.0 | 0.0 | 0.00 | 0.00 | 0.00 | 1016.6 | ||
| 20260510131557 | 0 | 0.0 | 0.0 | 0.00 | 0.00 | 0.00 | 1016.3 | ||
| 20260510130052 | 0 | 0.0 | 0.0 | 0.00 | 0.00 | 0.00 | 1016.2 | ||
| 20260510124551 | 51 | 164 | 0.0 | 0.0 | 0.00 | 0.00 | 0.00 | 85 | 1016.5 |
| 20260510123048 | 51 | 169 | 0.0 | 0.9 | 0.00 | 0.00 | 0.00 | 85 | 1016.4 |
| 20260510121553 | 52 | 122 | 0.0 | 0.9 | 0.00 | 0.00 | 0.00 | 85 | 1016.3 |
| 20260510120045 | 52 | 131 | 0.0 | 2.6 | 0.00 | 0.00 | 0.00 | 85 | 1016.2 |
| 20260510114547 | 52 | 159 | 0.0 | 1.7 | 0.00 | 0.00 | 0.00 | 84 | 1016.2 |
| 20260510113031 | 52 | 206 | 0.0 | 0.9 | 0.00 | 0.00 | 0.00 | 84 | 1015.8 |
| 20260510111535 | 53 | 175 | 0.0 | 0.9 | 0.00 | 0.00 | 0.00 | 84 | 1016.2 |
| 20260510110036 | 53 | 169 | 0.0 | 0.0 | 0.00 | 0.00 | 0.00 | 84 | 1015.8 |
| 20260510104527 | 53 | 156 | 0.0 | 0.9 | 0.00 | 0.00 | 0.00 | 84 | 1015.9 |
| 20260510103032 | 53 | 174 | 0.0 | 0.9 | 0.00 | 0.00 | 0.00 | 84 | 1015.5 |
| 20260510101523 | 54 | 129 | 0.0 | 2.6 | 0.00 | 0.00 | 0.00 | 83 | 1015.4 |
| 20260510100020 | 55 | 161 | 0.0 | 1.7 | 0.00 | 0.00 | 0.00 | 82 | 1015.2 |
| 20260510094518 | 55 | 167 | 0.0 | 1.7 | 0.00 | 0.00 | 0.00 | 81 | 1014.8 |
| 20260510093016 | 56 | 139 | 0.0 | 0.9 | 0.00 | 0.00 | 0.00 | 80 | 1015.1 |
| 20260510091511 | 56 | 197 | 0.0 | 1.7 | 0.00 | 0.00 | 0.00 | 78 | 1015.2 |
| 20260510090106 | 57 | 159 | 0.0 | 0.0 | 0.00 | 0.00 | 0.00 | 77 | 1015.2 |
| 20260510084600 | 57 | 164 | 0.0 | 0.9 | 0.00 | 0.00 | 0.00 | 77 | 1015.1 |
| 20260510083102 | 57 | 143 | 0.0 | 0.9 | 0.00 | 0.00 | 0.00 | 76 | 1014.9 |
| 20260510081555 | 57 | 143 | 0.0 | 0.0 | 0.00 | 0.00 | 0.00 | 76 | 1014.9 |
| 20260510080056 | 57 | 143 | 0.0 | 0.0 | 0.00 | 0.00 | 0.00 | 74 | 1014.9 |
| 20260510074607 | 58 | 143 | 0.0 | 0.0 | 0.00 | 0.00 | 0.00 | 72 | 1014.9 |
| 20260510073050 | 59 | 143 | 0.0 | 0.0 | 0.00 | 0.00 | 0.00 | 72 | 1014.8 |
| 20260510071556 | 59 | 143 | 0.0 | 0.0 | 0.00 | 0.00 | 0.00 | 71 | 1014.9 |
| 20260510070031 | 59 | 143 | 0.0 | 0.0 | 0.00 | 0.00 | 0.00 | 70 | 1014.9 |
| 20260510064529 | 59 | 143 | 0.0 | 0.0 | 0.00 | 0.00 | 0.00 | 69 | 1014.9 |
| 20260510063014 | 60 | 143 | 0.0 | 0.0 | 0.00 | 0.00 | 0.00 | 68 | 1014.8 |
| 20260510061513 | 60 | 143 | 0.0 | 0.0 | 0.00 | 0.00 | 0.00 | 67 | 1014.7 |
| 20260510060011 | 60 | 138 | 0.0 | 0.0 | 0.00 | 0.00 | 0.00 | 65 | 1014.8 |
| 20260510054510 | 61 | 138 | 0.0 | 0.0 | 0.00 | 0.00 | 0.00 | 63 | 1014.8 |
| 20260510053004 | 62 | 138 | 0.0 | 0.0 | 0.00 | 0.00 | 0.00 | 61 | 1014.7 |
| 20260510051501 | 63 | 138 | 0.0 | 0.0 | 0.00 | 0.00 | 0.00 | 59 | 1014.6 |
| 20260510050100 | 64 | 138 | 0.0 | 0.9 | 0.00 | 0.00 | 0.00 | 57 | 1014.7 |
| 20260510044602 | 64 | 146 | 0.0 | 0.0 | 0.00 | 0.00 | 0.00 | 55 | 1014.7 |
| 20260510043050 | 64 | 162 | 0.0 | 0.0 | 0.00 | 0.00 | 0.00 | 56 | 1014.6 |
| 20260510041605 | 64 | 151 | 0.0 | 0.0 | 0.00 | 0.00 | 0.00 | 59 | 1014.5 |
| 20260510040044 | 65 | 152 | 0.0 | 0.0 | 0.00 | 0.00 | 0.00 | 58 | 1014.1 |
| 20260510034539 | 66 | 152 | 0.0 | 0.0 | 0.00 | 0.00 | 0.00 | 56 | 1014.1 |
| 20260510033035 | 67 | 152 | 0.0 | 0.0 | 0.00 | 0.00 | 0.00 | 54 | 1013.9 |
| 20260510031531 | 68 | 153 | 0.0 | 0.0 | 0.00 | 0.00 | 0.00 | 51 | 1013.8 |
| 20260510030027 | 69 | 150 | 0.0 | 0.9 | 0.00 | 0.00 | 0.00 | 49 | 1013.9 |
| 20260510024524 | 70 | 163 | 0.0 | 0.9 | 0.00 | 0.00 | 0.00 | 47 | 1013.8 |
| 20260510023020 | 71 | 193 | 0.0 | 1.7 | 0.00 | 0.00 | 0.00 | 46 | 1013.8 |
| 20260510021553 | 72 | 127 | 0.0 | 0.9 | 0.00 | 0.00 | 0.00 | 46 | 1013.8 |
| 20260510020053 | 73 | 139 | 0.0 | 1.7 | 0.00 | 0.00 | 0.00 | 45 | 1013.9 |
| 20260510014539 | 74 | 167 | 0.0 | 1.7 | 0.00 | 0.00 | 0.00 | 44 | 1013.9 |
| 20260510013034 | 75 | 158 | 0.0 | 1.7 | 0.00 | 0.00 | 0.00 | 42 | 1014.1 |
| 20260510011536 | 76 | 167 | 0.0 | 0.9 | 0.00 | 0.00 | 0.00 | 41 | 1014.1 |
| 20260510010037 | 76 | 205 | 0.0 | 1.7 | 0.00 | 0.00 | 0.00 | 41 | 1014.3 |
| 20260510004528 | 76 | 148 | 0.0 | 2.6 | 0.00 | 0.00 | 0.00 | 38 | 1014.3 |
| 20260510003026 | 77 | 159 | 0.0 | 1.7 | 0.00 | 0.00 | 0.00 | 37 | 1014.4 |
| 20260510001527 | 77 | 148 | 0.0 | 0.0 | 0.00 | 0.00 | 0.00 | 35 | 1014.4 |
| 20260510000023 | 78 | 171 | 0.0 | 1.7 | 0.00 | 0.00 | 0.00 | 34 | 1014.6 |
| 20260509234520 | 78 | 179 | 0.0 | 2.6 | 0.00 | 0.00 | 0.00 | 34 | 1014.7 |
| 20260509233018 | 78 | 153 | 0.0 | 0.9 | 0.00 | 0.00 | 0.00 | 34 | 1014.7 |
| 20260509231526 | 78 | 199 | 0.0 | 1.7 | 0.00 | 0.00 | 0.00 | 33 | 1015.0 |
| 20260509230015 | 78 | 141 | 0.0 | 1.7 | 0.00 | 0.00 | 0.00 | 32 | 1015.1 |
| 20260509224512 | 77 | 150 | 0.0 | 1.7 | 0.00 | 0.00 | 0.00 | 35 | 1015.4 |
| 20260509223008 | 77 | 124 | 0.0 | 1.7 | 0.00 | 0.00 | 0.00 | 35 | 1015.7 |
| 20260509221601 | 77 | 93 | 0.0 | 2.6 | 0.00 | 0.00 | 0.00 | 36 | 1016.2 |
| 20260509220043 | 78 | 229 | 0.0 | 1.7 | 0.00 | 0.00 | 0.00 | 33 | 1016.4 |
| 20260509214523 | 77 | 139 | 0.0 | 1.7 | 0.00 | 0.00 | 0.00 | 40 | 1016.5 |
| 20260509213020 | 77 | 167 | 0.0 | 1.7 | 0.00 | 0.00 | 0.00 | 43 | 1016.6 |
| 20260509211516 | 76 | 155 | 0.0 | 2.6 | 0.00 | 0.00 | 0.00 | 42 | 1016.8 |
| 20260509210015 | 76 | 212 | 0.0 | 2.6 | 0.00 | 0.00 | 0.00 | 45 | 1016.9 |